Temperature
15 15 15 16 13 12 14 15 17 18 18 19 19 18 16 16 17 16 15 15 16 16 16 16 17 17 17 17 17 17 17 17 17 17 17 17 17 17 17 17 17 17 17 17 17 17 17 16 16
15 15 16 15 12 13 15 15 17 18 19 19 19 18 16 15 16 16 15 15 16 16 16 16 17 17 17 17 17 17 17 17 17 17 17 17 17 17 17 17 17 17 17 17 16 16 16 16 16
15 15 15 12 13 14 16 17 16 18 19 19 18 17 16 15 15 15 15 16 16 16 16 16 16 17 17 17 17 17 17 17 17 17 17 16 16 16 16 16 16 16 16 16 16 16 16 16 16
15 15 14 12 14 14 16 16 16 18 19 19 18 16 16 15 16 15 15 16 16 16 16 16 16 16 16 16 16 16 16 16 16 16 16 16 16 16 16 16 16 16 16 16 16 16 16 16 16
15 14 12 13 14 15 15 16 17 17 17 17 17 14 15 15 15 15 15 15 16 16 16 16 16 16 16 16 16 16 16 16 16 16 16 16 16 16 16 16 16 16 16 16 16 16 16 15 15
14 12 12 12 14 15 16 17 17 16 16 17 16 14 14 15 15 15 15 15 15 16 16 16 16 16 16 16 16 16 16 16 16 16 16 16 16 16 16 16 16 16 16 16 16 15 15 15 15
13 11 12 14 14 15 16 17 16 15 15 16 16 14 14 14 15 15 15 15 15 15 15 15 15 15 15 15 15 15 16 16 16 16 16 16 16 15 16 15 15 15 15 15 15 15 15 15 15
14 11 13 13 14 15 15 16 16 16 15 16 16 14 14 14 15 15 15 15 15 15 15 15 15 15 15 15 15 15 15 15 15 15 15 15 15 15 15 15 15 15 15 15 15 15 15 15 15
14 11 12 13 14 14 15 15 15 16 16 16 16 16 15 15 14 14 14 14 14 14 14 14 14 14 14 14 14 14 14 14 14 14 14 14 14 14 15 15 15 15 15 15 15 15 15 14 14
13 10 12 14 14 13 14 14 14 15 14 14 15 15 15 14 14 14 14 14 14 14 13 13 13 14 13 13 14 14 14 14 14 14 14 14 14 14 14 14 14 14 14 14 14 14 14 14 14
12 11 12 13 14 14 13 14 14 14 13 14 14 15 14 14 14 14 14 13 13 13 13 13 13 13 13 13 13 13 13 13 13 13 13 13 13 13 14 14 14 14 14 14 14 14 14 14 14
12 12 13 13 13 13 13 13 13 13 14 15 15 15 14 14 14 14 13 13 13 13 13 13 13 13 12 12 12 12 13 13 13 13 13 13 13 13 13 13 13 13 13 13 13 13 13 13 13
12 12 13 13 13 13 13 12 12 13 14 14 14 14 14 14 14 13 13 13 13 13 12 12 12 12 12 12 12 12 12 12 12 12 12 12 12 12 12 12 12 12 12 12 13 13 13 13 13
11 11 12 12 12 12 12 11 11 13 14 14 14 14 14 14 13 13 13 13 12 12 12 12 12 12 12 12 12 11 11 12 12 12 12 11 11 12 12 12 12 12 12 12 12 12 12 12 12
12 11 11 11 12 12 11 11 10 14 14 14 14 14 14 13 13 13 13 13 12 12 12 12 11 11 11 11 11 11 11 11 11 11 11 11 11 11 11 11 11 11 11 11 11 11 11 11 11
11 10 10 11 11 11 11 10 11 14 13 13 13 13 13 13 13 13 13 12 12 12 11 11 11 11 11 11 11 11 10 10 10 10 10 10 10 10 10 10 10 10 10 10 10 10 10 11 11
9 9 10 11 11 10 10 10 11 13 13 12 13 13 13 13 13 13 12 12 12 12 11 11 11 11 10 10 10 10 10 10 10 10 9 9 9 9 9 9 9 9 9 9 9 9 9 10 10
9 9 10 10 11 10 9 9 10 12 12 12 12 13 13 12 12 12 12 12 11 11 11 11 10 10 10 10 10 9 9 9 9 9 9 9 9 9 9 9 9 9 9 9 9 8 8 9 9
10 10 10 10 10 10 9 9 10 10 11 10 11 12 12 12 12 12 12 12 11 11 11 10 10 10 10 9 9 9 9 9 9 9 8 8 8 8 8 8 8 8 8 8 8 8 8 8 8
9 9 9 9 10 10 9 8 9 9 9 11 11 11 12 12 12 12 11 11 11 11 11 10 10 10 9 9 9 9 8 8 8 8 8 8 8 8 8 8 8 8 8 7 7 7 7 7 7
9 9 9 9 9 9 9 8 9 9 10 11 11 12 12 12 12 11 11 11 11 10 10 10 10 9 9 9 8 8 8 8 8 8 8 8 8 8 7 7 7 7 7 7 7 7 6 6 6
8 9 9 9 8 7 8 7 8 8 9 9 9 10 11 11 11 11 11 11 10 10 10 10 9 9 9 8 8 8 8 7 7 7 7 7 7 7 7 7 7 7 7 7 7 6 6 6 6
8 9 9 8 7 6 6 6 7 8 8 9 8 9 11 11 11 11 11 11 10 10 10 9 9 9 9 8 8 7 7 7 7 7 7 7 7 7 7 7 6 6 6 6 6 6 6 6 5
8 7 6 4 4 5 6 6 7 6 8 9 8 9 10 11 11 10 10 10 10 10 9 9 9 9 8 8 8 7 7 7 6 6 6 6 6 6 6 6 6 6 6 6 6 6 6 5 5
7 6 5 6 4 5 6 6 7 8 8 8 8 9 10 10 10 10 10 10 10 9 9 9 8 8 8 8 7 7 7 6 6 6 6 6 6 6 6 6 6 6 5 5 5 5 5 5 5
6 6 6 6 6 5 6 6 7 8 8 9 10 10 10 10 10 10 10 10 9 9 9 9 8 8 8 7 7 7 6 6 6 6 5 5 5 5 5 5 5 5 5 5 5 5 5 5 5
6 5 6 5 4 5 5 5 6 8 8 8 8 9 9 10 10 10 10 9 9 9 9 8 8 7 7 7 6 6 6 6 5 5 5 5 5 5 5 5 5 5 5 5 4 4 4 4 4
6 5 4 4 5 5 6 6 6 8 8 7 6 7 9 9 9 9 9 9 9 8 8 8 7 7 7 6 6 6 5 5 5 5 5 5 5 5 4 4 4 4 4 4 4 4 4 4 4
5 5 5 3 3 4 5 6 7 7 7 7 6 8 9 9 9 9 9 9 9 8 8 7 7 7 6 6 6 5 5 5 5 5 4 4 4 4 4 4 4 4 4 4 4 4 3 3 3
5 5 4 4 3 2 3 5 8 6 7 7 7 8 9 9 9 9 9 8 8 8 7 7 6 6 6 6 5 5 5 5 4 4 4 4 4 4 4 4 4 4 4 4 3 3 3 3 3
Wind_Speed
7 6 2 4 5 4 3 5 3 0 1 0 3 9 9 6 4 6 4 2 6 5 6 7 8 8 9 9 8 7 7 6 6 5 5 4 4 4 4 4 4 4 5 5 5 5 6 6 7
4 3 4 5 5 2 4 4 3 2 3 3 4 7 7 5 3 6 2 3 7 6 6 7 8 8 8 8 8 8 6 6 5 5 4 3 3 2 2 3 3 4 4 4 4 5 5 6 6
3 2 4 4 4 5 4 3 5 2 1 2 4 6 6 5 4 4 2 5 6 6 6 7 8 8 8 8 8 8 7 5 5 4 3 3 2 2 1 2 2 3 4 4 5 5 5 6 7
3 4 4 3 4 5 4 4 4 2 3 5 5 6 4 1 3 3 4 7 8 5 6 8 9 8 8 7 7 7 7 6 5 4 3 2 2 1 1 1 1 2 3 4 5 5 5 7 7
4 4 3 1 4 4 3 4 2 3 2 3 4 6 3 3 2 5 6 7 8 5 5 7 8 8 7 7 7 7 6 6 5 5 4 3 2 1 1 0 1 2 3 4 4 5 6 7 8
4 4 4 3 5 3 3 2 2 3 2 3 5 5 3 2 3 4 6 6 6 6 5 7 8 8 8 7 7 7 7 6 6 6 5 4 4 3 2 2 1 1 2 3 4 5 5 6 7
4 4 4 4 3 3 2 0 3 4 3 2 5 6 3 2 1 4 6 7 6 6 5 6 7 7 7 7 7 7 8 8 7 7 7 6 5 5 4 4 3 2 2 2 3 4 5 6 7
5 4 2 2 3 3 1 2 2 4 2 0 4 8 6 5 2 5 7 7 6 6 5 4 6 6 6 6 7 7 8 8 8 9 9 8 6 6 5 5 4 3 3 3 3 4 5 6 7
4 3 3 3 3 3 1 2 2 1 3 2 2 5 6 6 5 6 5 5 4 5 4 3 4 5 5 5 6 6 7 8 8 8 9 8 7 6 5 6 5 5 4 4 4 4 4 5 7
4 4 5 2 3 3 1 1 0 2 2 1 3 2 3 5 6 6 4 3 3 3 2 2 3 4 5 5 5 5 6 6 6 7 7 7 6 6 6 6 6 6 6 5 5 5 4 4 4
5 6 3 1 2 2 1 2 1 3 3 5 5 5 5 4 4 5 4 4 4 3 2 2 3 3 4 3 4 4 5 5 6 6 7 7 6 5 5 4 5 5 5 4 5 4 3 3 3
4 3 3 3 2 3 2 1 2 5 7 5 7 9 7 6 6 6 6 5 4 3 2 2 2 3 3 3 3 3 3 3 4 5 6 5 3 3 3 2 3 3 3 3 3 2 3 3 3
4 2 1 2 3 3 3 4 4 7 8 5 4 6 8 8 6 5 6 5 5 4 4 3 3 3 2 2 2 2 2 2 3 4 5 4 2 2 2 2 2 2 3 2 2 2 3 3 4
3 2 3 3 4 3 4 4 4 10 7 5 7 8 8 9 8 6 5 5 5 5 5 4 3 2 2 2 1 1 1 2 3 3 4 4 3 1 2 2 2 2 2 2 2 3 3 3 3
1 2 5 4 5 4 2 6 8 10 5 6 8 8 8 8 7 8 8 7 7 6 5 5 4 3 2 1 1 1 1 2 2 3 4 4 3 2 1 2 3 2 3 2 2 3 2 3 4
2 2 3 5 5 4 5 8 8 6 7 9 8 7 7 7 8 8 8 7 7 6 6 5 4 3 2 1 0 1 1 1 2 3 4 4 4 3 1 2 3 3 3 2 2 2 3 3 4
0 2 4 4 4 4 5 9 8 3 6 9 9 8 8 7 6 6 7 8 7 7 6 5 4 4 3 2 1 1 1 2 2 3 3 4 5 4 2 2 3 3 2 2 3 2 3 4 4
6 5 4 6 4 4 6 11 12 7 7 10 9 8 8 8 9 7 7 7 7 6 6 5 4 3 2 1 0 1 2 2 3 3 4 5 5 5 3 3 3 3 2 3 3 3 3 4 4
5 4 4 5 3 4 9 13 14 10 8 10 9 9 8 9 7 6 7 6 6 5 5 5 4 3 2 1 1 1 3 3 3 4 5 6 5 5 4 3 3 3 4 4 4 3 4 4 3
3 3 4 4 2 3 7 12 12 9 9 10 10 10 9 6 4 5 6 6 6 6 6 5 5 4 3 3 3 3 3 4 4 4 5 6 6 6 5 4 4 4 4 5 4 3 3 3 2
5 6 5 4 4 4 5 9 7 5 4 5 7 8 8 9 9 7 7 7 6 6 6 6 6 5 4 4 2 1 1 2 3 4 4 5 7 7 6 6 5 5 5 5 5 5 4 4 4
6 5 5 3 1 4 1 5 7 5 4 3 4 5 7 7 7 7 7 7 7 6 6 6 6 5 4 4 3 3 3 4 5 5 5 6 7 7 8 7 6 6 5 6 6 6 5 5 5
5 2 3 2 3 2 2 4 9 4 5 6 6 6 7 7 8 8 8 8 6 5 5 5 5 5 5 5 5 5 5 6 5 5 6 6 6 7 8 8 7 7 6 7 7 7 6 5 6
6 6 6 5 4 3 6 6 8 5 7 5 5 6 7 6 6 6 6 5 4 4 4 4 4 5 5 5 5 6 7 7 7 7 7 6 6 6 8 8 7 8 7 8 8 8 8 8 8
5 6 3 3 2 7 4 5 9 8 7 7 8 8 7 7 6 5 5 5 5 5 5 5 5 6 6 6 6 7 8 8 9 9 8 7 6 6 8 8 8 7 8 8 8 8 9 9 9
6 8 7 6 6 5 3 7 8 7 5 4 5 6 6 6 6 6 7 6 6 6 6 6 6 6 6 6 7 7 8 6 7 8 8 8 8 8 8 9 9 9 9 9 8 8 9 8 9
7 5 5 5 2 3 6 7 8 3 1 1 4 5 5 6 5 5 6 5 6 6 6 7 7 7 7 7 7 7 8 7 8 9 8 8 8 8 9 9 9 9 9 9 9 8 10 9 10
6 8 5 5 5 5 6 6 5 5 5 3 4 5 5 5 5 5 5 6 5 6 5 5 5 6 6 6 7 7 7 8 8 8 9 9 9 9 9 9 9 10 10 9 9 9 10 10 11
6 5 5 5 5 6 5 7 6 8 7 6 6 6 6 6 6 6 5 5 5 4 3 4 4 5 5 6 6 6 7 7 8 8 9 9 8 8 9 9 10 10 10 9 9 10 10 11 12
6 8 8 6 6 5 4 8 5 5 6 5 5 4 5 5 5 5 5 4 4 4 4 4 4 5 5 5 5 6 7 7 7 8 8 8 8 8 9 9 10 10 10 10 10 11 11 12 13
Wind_Direction
341 348 65 58 62 59 239 251 238 130 94 65 91 98 101 93 114 146 201 192 133 123 101 93 86 83 80 77 78 81 86 88 88 89 96 104 114 126 136 142 150 155 156 157 155 146 144 143 142
356 15 59 64 99 142 259 258 216 222 193 149 90 87 83 80 90 123 161 134 126 116 102 95 88 84 81 78 74 72 73 78 82 84 89 98 109 126 149 161 166 170 173 173 170 159 161 162 160
350 68 85 85 139 184 209 224 185 193 16 97 72 62 92 118 128 146 169 134 112 103 100 97 91 84 79 76 73 68 65 65 68 73 78 89 99 114 140 180 185 189 196 194 187 176 175 179 177
53 59 64 92 216 231 209 215 192 130 39 50 90 68 64 43 152 158 130 120 110 102 97 96 92 83 76 70 69 67 60 55 55 60 64 71 75 90 110 206 205 211 214 208 200 194 188 190 188
66 85 92 199 237 244 227 225 195 116 85 51 88 98 73 349 85 113 108 111 117 113 94 93 92 83 75 68 65 61 57 50 43 41 44 47 39 25 16 347 249 239 228 216 215 211 203 199 199
63 80 121 210 235 240 256 264 147 104 103 81 90 107 134 312 84 98 102 102 114 119 96 85 87 79 73 67 63 57 51 45 41 34 31 32 33 30 26 8 340 274 249 240 232 224 217 211 207
113 120 178 207 211 227 232 355 123 121 105 122 124 120 161 268 169 111 100 95 90 96 89 72 69 69 67 63 59 56 49 43 38 35 28 26 28 24 23 18 8 350 296 269 251 239 231 223 218
133 119 201 233 205 214 265 73 90 115 137 132 115 141 180 219 186 96 84 78 80 78 77 70 59 55 53 53 54 49 44 40 38 35 30 26 23 20 18 13 11 1 334 308 283 264 247 236 228
102 94 205 223 194 203 330 80 15 66 94 45 73 167 184 166 125 95 76 61 69 70 66 71 62 52 44 46 42 39 40 35 33 31 30 27 19 16 15 8 5 359 349 329 310 290 279 260 241
101 164 216 219 174 170 32 82 127 66 47 31 36 44 117 124 121 119 120 120 107 102 87 81 74 57 45 39 34 31 34 31 30 27 26 23 21 17 18 9 6 359 352 343 327 313 295 279 257
158 192 213 185 152 132 91 335 319 148 217 206 185 174 153 141 143 146 154 157 158 150 121 92 97 78 63 40 34 29 23 24 24 25 25 24 23 17 16 14 3 357 355 350 334 325 311 286 256
178 230 212 195 170 146 175 267 293 215 218 199 181 171 165 170 182 179 174 173 165 145 140 114 95 82 69 58 36 32 23 16 14 12 21 27 19 8 3 9 360 3 354 345 341 322 312 293 272
209 251 264 197 190 193 198 226 248 250 239 216 185 178 184 188 195 195 184 177 163 159 164 159 132 106 79 65 28 25 9 6 4 8 14 23 19 349 339 340 352 351 352 345 333 321 311 298 278
195 249 289 247 220 215 213 252 236 253 239 217 203 203 201 197 196 192 187 185 181 174 175 171 152 136 102 80 42 358 353 351 359 357 352 9 14 354 339 320 311 318 324 318 302 308 296 285 285
108 358 316 249 206 214 176 274 234 242 215 214 214 210 208 210 200 194 194 189 185 181 176 173 167 148 128 114 31 3 339 348 334 331 334 338 347 344 330 315 305 292 309 310 307 306 307 306 299
71 54 287 267 186 174 160 261 258 242 200 221 223 216 213 218 209 201 193 185 181 174 175 182 170 157 157 153 214 312 327 321 304 315 321 320 319 319 306 291 293 295 303 297 294 297 305 298 292
95 211 238 273 192 166 190 248 267 267 201 223 224 217 217 218 216 206 190 180 175 171 171 172 169 170 176 181 215 274 296 281 279 289 294 300 299 292 271 255 266 287 278 277 287 299 294 292 293
201 209 229 241 223 182 223 254 270 271 234 231 228 223 218 211 215 205 190 177 166 164 163 166 171 179 176 170 303 313 300 281 277 268 265 275 283 280 267 250 255 261 266 269 272 281 288 282 283
168 182 233 248 229 211 239 259 269 264 244 238 234 225 219 216 218 196 178 166 155 158 161 170 174 188 174 186 229 260 269 271 272 262 257 260 267 270 251 255 253 248 247 248 254 270 279 288 296
217 230 251 285 290 231 264 272 271 259 235 225 219 214 211 204 191 180 171 167 169 174 177 181 188 196 199 207 220 226 240 253 254 260 260 256 257 260 256 243 248 249 251 252 249 251 253 275 287
222 210 217 244 331 341 323 302 286 281 241 225 209 200 197 190 187 183 178 181 180 186 191 194 201 206 215 216 224 277 293 296 280 272 266 258 257 256 248 240 242 246 240 241 242 237 235 259 268
226 213 193 186 46 291 351 294 285 284 294 255 211 192 196 191 183 180 180 185 191 201 201 199 206 215 223 214 212 230 248 260 258 257 258 265 256 254 249 241 239 240 240 241 241 240 234 234 257
194 144 132 134 142 313 265 228 281 291 260 252 226 205 200 192 182 180 184 190 198 197 198 206 212 223 228 223 221 230 247 252 261 265 266 265 259 251 246 239 238 238 240 242 240 241 236 230 241
130 72 58 53 75 278 223 196 274 241 225 232 223 211 201 190 185 186 189 186 198 205 208 211 219 237 237 234 234 232 244 254 265 269 265 266 263 259 249 243 240 238 240 242 243 238 234 235 240
116 103 51 351 335 250 224 210 250 246 235 213 206 207 200 186 182 187 188 196 208 214 222 222 222 240 244 239 242 243 244 247 249 255 255 262 265 261 252 250 243 243 242 243 245 241 237 235 238
175 153 166 198 224 269 252 233 252 265 262 230 197 184 178 182 188 194 200 204 213 221 225 225 232 246 249 246 251 252 251 250 250 249 250 252 255 255 252 247 244 243 244 249 247 247 244 242 240
148 186 164 135 153 264 263 275 297 287 285 171 167 167 183 194 203 209 213 217 222 226 228 225 232 248 253 254 257 261 259 255 257 256 251 253 255 258 253 250 249 248 246 247 247 249 247 244 243
149 147 120 143 175 241 273 262 239 232 226 212 194 195 205 208 215 222 224 227 230 230 235 234 233 243 253 255 256 263 262 260 262 258 256 257 257 256 255 255 253 252 251 249 247 251 250 247 248
151 160 156 150 168 179 247 262 224 209 208 205 208 203 202 209 218 225 233 237 240 245 245 249 256 258 265 265 265 270 272 270 271 262 258 258 259 259 260 260 258 255 255 252 249 250 252 252 254
180 177 156 168 216 198 208 264 263 224 216 198 204 213 222 223 227 233 236 242 247 248 252 255 262 263 263 267 273 276 280 282 281 272 267 264 263 263 261 263 261 260 260 254 251 255 255 254 255
Height
1495 1496 1498 1500 1503 1513 1511 1502 1494 1491 1490 1490 1489 1489 1493 1498 1502 1510 1508 1506 1507 1508 1509 1509 1510 1510 1510 1511 1511 1511 1511 1512 1512 1512 1513 1513 1513 1514 1514 1514 1515 1515 1515 1516 1516 1516 1516 1516 1516
1495 1497 1499 1500 1508 1516 1510 1499 1494 1490 1489 1489 1490 1491 1494 1499 1501 1504 1505 1506 1507 1508 1509 1509 1509 1510 1510 1510 1510 1510 1511 1511 1511 1512 1512 1512 1512 1513 1513 1513 1514 1514 1514 1515 1515 1515 1515 1515 1515
1495 1496 1499 1501 1508 1510 1502 1494 1491 1489 1488 1489 1491 1493 1496 1500 1502 1503 1505 1506 1507 1508 1508 1509 1509 1509 1509 1509 1510 1510 1510 1510 1510 1511 1511 1511 1511 1512 1512 1512 1512 1512 1513 1513 1513 1514 1514 1514 1514
1495 1497 1499 1505 1505 1500 1495 1492 1489 1488 1488 1489 1490 1495 1498 1501 1502 1504 1504 1506 1506 1507 1508 1508 1508 1508 1508 1509 1509 1509 1509 1509 1509 1509 1509 1510 1510 1510 1510 1510 1511 1511 1511 1511 1512 1512 1512 1512 1512
1494 1496 1502 1506 1502 1496 1491 1489 1489 1488 1489 1490 1491 1495 1499 1502 1503 1504 1504 1505 1506 1506 1507 1507 1507 1507 1507 1507 1507 1507 1507 1507 1507 1508 1508 1508 1508 1508 1508 1508 1509 1509 1509 1509 1510 1510 1510 1510 1511
1494 1496 1506 1507 1500 1493 1490 1489 1489 1489 1490 1491 1492 1496 1499 1502 1502 1503 1504 1505 1505 1505 1506 1506 1506 1506 1506 1506 1506 1506 1506 1506 1506 1506 1506 1506 1506 1506 1506 1506 1507 1507 1507 1507 1507 1508 1508 1508 1508
1494 1498 1502 1499 1497 1494 1490 1489 1489 1489 1490 1492 1492 1496 1499 1501 1502 1503 1503 1504 1504 1504 1504 1505 1505 1505 1505 1504 1504 1504 1504 1504 1504 1504 1504 1504 1504 1504 1504 1504 1504 1504 1504 1505 1505 1505 1505 1506 1506
1492 1497 1497 1497 1494 1492 1489 1489 1489 1489 1490 1492 1492 1494 1496 1499 1500 1501 1502 1503 1503 1503 1503 1503 1503 1503 1503 1503 1503 1502 1502 1502 1502 1502 1502 1502 1502 1502 1502 1502 1502 1502 1502 1502 1502 1502 1503 1503 1503
1492 1499 1500 1495 1492 1491 1489 1489 1490 1490 1490 1491 1491 1493 1494 1497 1498 1500 1501 1501 1502 1502 1502 1502 1502 1502 1502 1502 1501 1501 1501 1500 1500 1500 1500 1500 1500 1499 1499 1499 1499 1499 1499 1499 1500 1499 1500 1500 1500
1491 1499 1494 1490 1489 1489 1489 1489 1489 1489 1489 1490 1491 1492 1493 1495 1496 1498 1498 1499 1500 1500 1500 1501 1501 1500 1500 1500 1500 1499 1499 1499 1499 1498 1498 1498 1497 1497 1497 1497 1497 1497 1496 1496 1496 1496 1496 1497 1497
1490 1493 1490 1488 1488 1488 1488 1489 1489 1489 1489 1488 1489 1490 1491 1493 1494 1495 1496 1497 1498 1498 1499 1499 1499 1499 1499 1498 1498 1498 1497 1497 1497 1496 1496 1496 1495 1495 1495 1494 1494 1494 1493 1493 1493 1493 1493 1493 1493
1489 1488 1487 1487 1487 1487 1488 1488 1488 1486 1486 1486 1487 1488 1489 1491 1492 1493 1494 1495 1496 1496 1497 1497 1497 1497 1497 1497 1496 1496 1495 1495 1494 1494 1494 1493 1493 1492 1492 1492 1491 1490 1490 1490 1490 1489 1489 1489 1489
1487 1487 1486 1486 1486 1486 1487 1486 1486 1483 1483 1484 1485 1487 1487 1488 1490 1491 1492 1493 1493 1494 1495 1495 1495 1495 1495 1495 1494 1494 1493 1493 1492 1492 1491 1491 1490 1490 1489 1489 1488 1487 1487 1486 1486 1486 1485 1485 1485
1486 1486 1485 1485 1485 1485 1485 1484 1484 1478 1480 1481 1482 1484 1485 1486 1487 1488 1489 1490 1491 1492 1492 1493 1493 1493 1493 1493 1492 1491 1491 1490 1489 1489 1488 1488 1487 1487 1486 1486 1485 1484 1483 1483 1483 1482 1482 1481 1481
1485 1486 1485 1483 1482 1483 1484 1484 1479 1474 1477 1478 1479 1480 1482 1483 1484 1485 1486 1487 1488 1489 1490 1490 1491 1491 1491 1490 1490 1489 1488 1488 1487 1486 1485 1485 1484 1484 1483 1482 1482 1481 1480 1480 1479 1479 1478 1477 1477
1486 1489 1489 1482 1480 1481 1486 1484 1473 1472 1474 1474 1475 1477 1478 1480 1481 1482 1483 1484 1485 1486 1487 1488 1488 1488 1488 1488 1487 1487 1486 1485 1484 1483 1482 1482 1481 1481 1480 1479 1479 1478 1477 1476 1475 1474 1474 1473 1472
1490 1492 1488 1482 1479 1480 1483 1480 1471 1470 1470 1471 1472 1473 1474 1476 1477 1479 1480 1481 1482 1483 1484 1484 1485 1485 1485 1485 1484 1484 1483 1482 1481 1480 1479 1478 1478 1477 1476 1476 1475 1475 1474 1473 1472 1470 1470 1469 1467
1490 1490 1485 1483 1478 1480 1481 1477 1469 1468 1468 1467 1468 1469 1470 1471 1473 1475 1476 1478 1479 1480 1481 1481 1482 1482 1482 1481 1481 1480 1480 1479 1478 1476 1475 1474 1474 1474 1473 1472 1472 1471 1470 1469 1468 1467 1467 1466 1464
1480 1482 1482 1480 1476 1478 1478 1473 1467 1464 1464 1464 1464 1465 1466 1467 1469 1471 1472 1474 1475 1477 1477 1478 1478 1478 1478 1478 1477 1476 1475 1475 1474 1473 1472 1471 1470 1470 1469 1468 1467 1467 1466 1465 1465 1464 1463 1462 1461
1479 1481 1482 1479 1476 1477 1476 1471 1463 1459 1458 1457 1458 1459 1461 1463 1465 1466 1468 1470 1471 1473 1474 1475 1475 1475 1475 1474 1473 1473 1472 1470 1470 1469 1468 1467 1466 1465 1464 1463 1463 1462 1462 1461 1461 1460 1458 1458 1458
1479 1481 1480 1479 1478 1476 1477 1472 1462 1455 1453 1452 1453 1454 1456 1458 1460 1462 1464 1466 1468 1469 1470 1471 1471 1471 1471 1471 1470 1469 1468 1466 1465 1464 1463 1463 1462 1461 1460 1459 1458 1458 1457 1456 1455 1455 1454 1453 1454
1478 1474 1475 1478 1483 1486 1482 1484 1465 1457 1453 1451 1450 1451 1453 1455 1457 1459 1461 1463 1464 1466 1467 1468 1468 1468 1467 1467 1466 1464 1463 1461 1460 1460 1458 1458 1457 1456 1455 1455 1454 1453 1452 1451 1450 1450 1449 1449 1448
1472 1472 1475 1478 1484 1489 1485 1486 1469 1459 1455 1450 1449 1449 1450 1452 1454 1456 1458 1460 1462 1463 1464 1464 1464 1464 1464 1463 1462 1461 1459 1457 1456 1455 1453 1453 1452 1451 1450 1450 1448 1447 1446 1446 1445 1445 1444 1443 1443
1470 1475 1480 1487 1491 1493 1483 1486 1470 1460 1451 1447 1446 1446 1448 1450 1452 1454 1456 1458 1459 1460 1461 1461 1461 1460 1460 1459 1457 1456 1455 1453 1451 1450 1448 1447 1446 1445 1444 1444 1442 1441 1440 1440 1439 1438 1437 1437 1437
1470 1481 1492 1493 1499 1490 1478 1478 1465 1449 1444 1442 1443 1444 1445 1448 1450 1452 1453 1454 1455 1456 1457 1457 1456 1456 1455 1454 1453 1451 1450 1448 1446 1444 1443 1441 1440 1439 1438 1437 1436 1435 1434 1433 1432 1431 1430 1430 1430
1469 1473 1485 1488 1490 1483 1476 1474 1456 1443 1440 1439 1440 1441 1444 1446 1448 1449 1451 1451 1452 1453 1453 1452 1452 1451 1450 1449 1447 1446 1444 1443 1441 1439 1437 1435 1434 1432 1432 1430 1429 1428 1427 1426 1425 1424 1423 1423 1422
1468 1473 1472 1484 1488 1487 1477 1466 1452 1441 1439 1439 1439 1441 1442 1444 1446 1447 1448 1449 1449 1449 1448 1448 1447 1446 1445 1443 1442 1440 1439 1437 1434 1432 1431 1429 1428 1426 1425 1424 1422 1421 1420 1419 1418 1416 1415 1415 1415
1461 1466 1477 1484 1487 1483 1472 1466 1455 1443 1440 1439 1440 1440 1440 1442 1444 1445 1445 1445 1445 1445 1444 1444 1443 1441 1440 1438 1436 1434 1432 1430 1428 1426 1424 1422 1421 1420 1418 1416 1415 1413 1412 1411 1410 1409 1408 1407 1406
1462 1465 1468 1478 1482 1482 1477 1460 1441 1438 1437 1438 1438 1438 1439 1440 1441 1442 1442 1442 1442 1441 1440 1439 1438 1437 1435 1433 1431 1428 1426 1424 1422 1419 1417 1415 1414 1412 1411 1409 1407 1405 1404 1403 1402 1401 1400 1398 1398
1454 1457 1464 1473 1478 1480 1477 1458 1434 1434 1433 1434 1435 1436 1437 1438 1439 1439 1439 1439 1438 1437 1436 1435 1433 1432 1430 1427 1425 1423 1420 1418 1415 1413 1411 1409 1407 1405 1404 1402 1400 1398 1396 1395 1394 1392 1391 1390 1389